This is the latest recevied weather packets stored in our database for station/object K1JO. If no packets are shown the sender has not sent any weather packets the latest 10 day(s).
| Time | Temp. | Humidity | Pressure | Rain* | Wind** | Luminosity | Snow |
|---|---|---|---|---|---|---|---|
| 1777262573 | 3.33° C | 94% | 1018.9 hPa | 0 mm | - | 0 W/m² | - |
| 1777262270 | 3.33° C | 93% | 1019.1 hPa | 0 mm | - | 0 W/m² | - |
| 1777261967 | 3.33° C | 93% | 1018.8 hPa | 0 mm | - | 0 W/m² | - |
| 1777261663 | 3.33° C | 93% | 1018.7 hPa | 0 mm | - | 0 W/m² | - |
| 1777261360 | 3.33° C | 93% | 1018.9 hPa | 0 mm | - | 0 W/m² | - |
| 1777261058 | 3.33° C | 93% | 1018.9 hPa | 0 mm | - | 0 W/m² | - |
| 1777260756 | 3.33° C | 93% | 1018.9 hPa | 0 mm | - | 0 W/m² | - |
| 1777260452 | 3.33° C | 92% | 1018.6 hPa | 0 mm | - | 0 W/m² | - |
| 1777260147 | 3.89° C | 92% | 1018.5 hPa | 0 mm | - | 0 W/m² | - |
| 1777259844 | 3.89° C | 91% | 1018.6 hPa | 0 mm | - | 0 W/m² | - |
| 1777259541 | 3.89° C | 90% | 1018.5 hPa | 0 mm | - | 0 W/m² | - |
| 1777259239 | 3.89° C | 89% | 1018.7 hPa | 0 mm | - | 0 W/m² | - |
| 1777258935 | 4.44° C | 88% | 1018.5 hPa | 0 mm | - | 0 W/m² | - |
| 1777258633 | 4.44° C | 88% | 1018.6 hPa | 0 mm | - | 0 W/m² | - |
| 1777258329 | 5° C | 88% | 1018.4 hPa | 0 mm | - | 0 W/m² | - |
| 1777258026 | 4.44° C | 88% | 1018.6 hPa | 0 mm | - | 0 W/m² | - |
| 1777257723 | 4.44° C | 88% | 1018.5 hPa | 0 mm | - | 0 W/m² | - |
| 1777257421 | 5° C | 88% | 1018.4 hPa | 0 mm | - | 0 W/m² | - |
| 1777257117 | 5° C | 87% | 1018.5 hPa | 0 mm | - | 0 W/m² | - |
| 1777256814 | 5° C | 87% | 1018.3 hPa | 0 mm | - | 0 W/m² | - |
| 1777256511 | 5° C | 86% | 1018.2 hPa | 0 mm | - | 0 W/m² | - |
| 1777256205 | 5.56° C | 84% | 1018.3 hPa | 0 mm | - | 0 W/m² | - |
| 1777255903 | 5.56° C | 82% | 1018.4 hPa | 0 mm | - | 0 W/m² | - |
| 1777255599 | 6.11° C | 82% | 1018.2 hPa | 0 mm | - | 0 W/m² | - |
| 1777255295 | 6.67° C | 79% | 1018.4 hPa | 0 mm | - | 0 W/m² | - |
* Rain latest hour (hover to see other rain measurements)
** Current wind speed in m/s (hover to see current wind gust speed)